Regional Weather Roundup
Issued by NWS

Home | Current Version | Previous Version | Graphics & Text | Print | Product List | Glossary Off
Versions: 1 2 3 4 5 6 7 8 9 10 11 12 13 14 15 16 17 18 19 20 21 22 23 24 25 26 27 28 29 30 31 32 33 34 35 36 37 38 39 40 41 42 43 44 45 46 47 48 49 50

000
ASUS43 KTOP 180008
RWRKS

WEATHER ROUNDUP FOR KANSAS
NATIONAL WEATHER SERVICE GOODLAND KS
600 PM CST SAT FEB 17 2018

NOTE:  "FAIR" INDICATES FEW OR NO CLOUDS BELOW 12,000 FEET WITH NO
SIGNIFICANT WEATHER AND/OR OBSTRUCTIONS TO VISIBILITY.

KSZ001>006-013>018-027>032-041>047-180100-
NORTHWEST KANSAS

CITY           SKY/WX    TMP DP  RH WIND       PRES   REMARKS
GOODLAND       CLEAR     46  16  30 SE8       30.01F
6HR MIN TEMP:  46; 6HR MAX TEMP:  53;

HAYS           CLEAR     51  12  21 N7        30.11S
HILL CITY      CLEAR     50  12  21 N3        30.09S
6HR MIN TEMP:  50; 6HR MAX TEMP:  55;

RUSSELL        CLEAR     52  11  19 NW6       30.10S
6HR MIN TEMP:  52; 6HR MAX TEMP:  60;

$$

KSZ061>065-074>080-084>089-180100-
SOUTHWEST KANSAS

CITY           SKY/WX    TMP DP  RH WIND       PRES   REMARKS
DODGE CITY     CLEAR     53  10  18 E3        30.12S
6HR MIN TEMP:  53; 6HR MAX TEMP:  59;

ELKHART        CLEAR     55  17  23 SE12      30.12S
GARDEN CITY    CLEAR     50   6  16 SE7       30.10F
6HR MIN TEMP:  50; 6HR MAX TEMP:  56;

GREAT BEND     CLEAR     50   9  19 N8        30.11F
LIBERAL        CLEAR     53   9  17 E7        30.13F
PRATT          CLEAR     54   8  16 CALM      30.14S
6HR MIN TEMP:  54; 6HR MAX TEMP:  58;

$$

KSZ066>073-081>083-090>101-180100-
SOUTHEAST KANSAS

CITY           SKY/WX    TMP DP  RH WIND       PRES   REMARKS
CHANUTE        CLEAR     52  16  24 N6        30.15R
6HR MIN TEMP:  47; 6HR MAX TEMP:  60;

COFFEYVILLE    CLEAR     52  26  36 NE7       30.15R
6HR MIN TEMP:  47; 6HR MAX TEMP:  62;

HUTCHINSON     CLEAR     55  12  18 CALM      30.13R
6HR MIN TEMP:  54; 6HR MAX TEMP:  60;

MEDICINE LODGE   N/A     53  14  21 NE6       30.14R
NEWTON         CLEAR     48  13  24 N8        30.13S
PARSONS        CLEAR     53  23  31 CALM      30.15R
6HR MIN TEMP:  46; 6HR MAX TEMP:  62;

WICHITA INTL   CLEAR     54  10  17 NE7       30.13R
6HR MIN TEMP:  54; 6HR MAX TEMP:  61;

WICHITA JABRA  CLEAR     51  10  19 N7        30.13R
6HR MIN TEMP:  51; 6HR MAX TEMP:  60;

WICHITA MCCONL CLEAR     52  10  18 NE6       30.13R
WINFIELD       CLEAR     53  12  19 NE5       30.16R
6HR MIN TEMP:  50; 6HR MAX TEMP:  62;

$$

KSZ007>012-019>026-033>040-048>060-102>105-180100-
NORTHEAST KANSAS

CITY           SKY/WX    TMP DP  RH WIND       PRES   REMARKS
CONCORDIA      CLEAR     50  15  24 W5        30.10S
6HR MIN TEMP:  50; 6HR MAX TEMP:  55;

EMPORIA        CLEAR     50  14  23 NW7       30.14R
6HR MIN TEMP:  50; 6HR MAX TEMP:  57;

LAWRENCE       CLEAR     48  21  34 W3        30.13R
6HR MIN TEMP:  48; 6HR MAX TEMP:  57;

MANHATTAN      CLEAR     51  15  23 CALM      30.12R
6HR MIN TEMP:  51; 6HR MAX TEMP:  58;

MARYSVILLE     CLEAR     45  21  39 N6        30.12R
OLATHE IND     CLEAR     46  19  34 NW5       30.15R
6HR MIN TEMP:  46; 6HR MAX TEMP:  55;

OLATHE EXE     CLEAR     49  19  30 NW5       30.14R
6HR MIN TEMP:  45; 6HR MAX TEMP:  53;

SALINA         CLEAR     54  13  19 W3        30.13R
6HR MIN TEMP:  54; 6HR MAX TEMP:  60;

TOPEKA BILLARD CLEAR     51  17  26 W5        30.13R
6HR MIN TEMP:  50; 6HR MAX TEMP:  57;

TOPEKA FORBES  CLEAR     50  17  27 NW5       30.13R
6HR MIN TEMP:  50; 6HR MAX TEMP:  57;

$$




USA.gov is the U.S. government's official web portal to all federal, state and local government web resources and services.